Year,Month,Day,Hour,Minute,Value (Times are PST for windspeed in km/hr)
2019,04,24,00,00,0.00
2019,04,24,00,01,0.00
2019,04,24,00,02,0.00
2019,04,24,00,03,0.00
2019,04,24,00,04,0.00
2019,04,24,00,05,0.00
2019,04,24,00,06,0.00
2019,04,24,00,07,0.00
2019,04,24,00,08,2.40
2019,04,24,00,09,2.60
2019,04,24,00,10,0.30
2019,04,24,00,11,1.40
2019,04,24,00,12,0.00
2019,04,24,00,13,0.00
2019,04,24,00,14,0.00
2019,04,24,00,15,0.00
2019,04,24,00,16,0.00
2019,04,24,00,17,0.00
2019,04,24,00,18,0.00
2019,04,24,00,19,0.00
2019,04,24,00,20,0.00
2019,04,24,00,21,0.10
2019,04,24,00,22,2.90
2019,04,24,00,23,1.10
2019,04,24,00,24,0.00
2019,04,24,00,25,0.00
2019,04,24,00,26,0.00
2019,04,24,00,27,0.00
2019,04,24,00,28,0.00
2019,04,24,00,29,0.00
2019,04,24,00,30,0.80
2019,04,24,00,31,2.70
2019,04,24,00,32,1.10
2019,04,24,00,33,1.40
2019,04,24,00,34,0.30
2019,04,24,00,35,0.00
2019,04,24,00,36,0.00
2019,04,24,00,37,0.00
2019,04,24,00,38,0.00
2019,04,24,00,39,0.00
2019,04,24,00,40,0.00
2019,04,24,00,41,0.00
2019,04,24,00,42,0.00
2019,04,24,00,43,0.00
2019,04,24,00,44,0.00
2019,04,24,00,45,0.00
2019,04,24,00,46,1.00
2019,04,24,00,47,8.10
2019,04,24,00,48,3.90
2019,04,24,00,49,0.70
2019,04,24,00,50,0.00
2019,04,24,00,51,0.50
2019,04,24,00,52,1.50
2019,04,24,00,53,2.70
2019,04,24,00,54,0.20
2019,04,24,00,55,2.40
2019,04,24,00,56,0.10
2019,04,24,00,57,2.30
2019,04,24,00,58,3.60
2019,04,24,00,59,2.10
2019,04,24,01,00,0.00
2019,04,24,01,01,0.00
2019,04,24,01,02,0.60
2019,04,24,01,03,1.20
2019,04,24,01,04,2.70
2019,04,24,01,05,2.00
2019,04,24,01,06,0.00
2019,04,24,01,07,0.00
2019,04,24,01,08,0.10
2019,04,24,01,09,3.20
2019,04,24,01,10,3.40
2019,04,24,01,11,8.00
2019,04,24,01,12,3.60
2019,04,24,01,13,1.90
2019,04,24,01,14,4.70
2019,04,24,01,15,1.10
2019,04,24,01,16,0.00
2019,04,24,01,17,2.70
2019,04,24,01,18,5.70
2019,04,24,01,19,5.90
2019,04,24,01,20,7.10
2019,04,24,01,21,2.70
2019,04,24,01,22,2.40
2019,04,24,01,23,2.70
2019,04,24,01,24,4.50
2019,04,24,01,25,2.00
2019,04,24,01,26,3.80
2019,04,24,01,27,0.50
2019,04,24,01,28,2.40
2019,04,24,01,29,4.20
2019,04,24,01,30,2.60
2019,04,24,01,31,2.00
2019,04,24,01,32,2.20
2019,04,24,01,33,2.10
2019,04,24,01,34,0.30
2019,04,24,01,35,0.00
2019,04,24,01,36,0.30
2019,04,24,01,37,4.10
2019,04,24,01,38,4.60
2019,04,24,01,39,4.20
2019,04,24,01,40,0.40
2019,04,24,01,41,3.50
2019,04,24,01,42,11.20
2019,04,24,01,43,8.40
2019,04,24,01,44,7.00
2019,04,24,01,45,6.00
2019,04,24,01,46,6.90
2019,04,24,01,47,7.50
2019,04,24,01,48,7.90
2019,04,24,01,49,3.40
2019,04,24,01,50,4.20
2019,04,24,01,51,5.30
2019,04,24,01,52,3.30
2019,04,24,01,53,1.00
2019,04,24,01,54,0.00
2019,04,24,01,55,0.00
2019,04,24,01,56,0.10
2019,04,24,01,57,5.70
2019,04,24,01,58,10.10
2019,04,24,01,59,4.70
2019,04,24,02,00,2.90
2019,04,24,02,01,0.40
2019,04,24,02,02,0.00
2019,04,24,02,03,0.00
2019,04,24,02,04,1.00
2019,04,24,02,05,9.50
2019,04,24,02,06,3.50
2019,04,24,02,07,1.70
2019,04,24,02,08,3.90
2019,04,24,02,09,4.10
2019,04,24,02,10,5.20
2019,04,24,02,11,2.20
2019,04,24,02,12,6.30
2019,04,24,02,13,6.60
2019,04,24,02,14,5.40
2019,04,24,02,15,6.00
2019,04,24,02,16,6.00
2019,04,24,02,17,3.90
2019,04,24,02,18,0.70
2019,04,24,02,19,0.00
2019,04,24,02,20,4.50
2019,04,24,02,21,4.10
2019,04,24,02,22,3.30
2019,04,24,02,23,0.10
2019,04,24,02,24,2.30
2019,04,24,02,25,1.20
2019,04,24,02,26,3.30
2019,04,24,02,27,8.60
2019,04,24,02,28,7.80
2019,04,24,02,29,3.60
2019,04,24,02,30,0.60
2019,04,24,02,31,0.00
2019,04,24,02,32,1.10
2019,04,24,02,33,1.70
2019,04,24,02,34,0.30
2019,04,24,02,35,0.00
2019,04,24,02,36,6.20
2019,04,24,02,37,3.90
2019,04,24,02,38,3.30
2019,04,24,02,39,2.60
2019,04,24,02,40,0.90
2019,04,24,02,41,3.60
2019,04,24,02,42,2.40
2019,04,24,02,43,0.00
2019,04,24,02,44,0.00
2019,04,24,02,45,0.00
2019,04,24,02,46,0.00
2019,04,24,02,47,0.00
2019,04,24,02,48,0.00
2019,04,24,02,49,0.00
2019,04,24,02,50,0.00
2019,04,24,02,51,0.00
2019,04,24,02,52,0.00
2019,04,24,02,53,0.00
2019,04,24,02,54,0.00
2019,04,24,02,55,0.00
2019,04,24,02,56,0.00
2019,04,24,02,57,0.00
2019,04,24,02,58,0.00
2019,04,24,02,59,0.00
2019,04,24,03,00,0.00
2019,04,24,03,01,0.00
2019,04,24,03,02,0.00
2019,04,24,03,03,0.00
2019,04,24,03,04,0.00
2019,04,24,03,05,0.00
2019,04,24,03,06,0.00
2019,04,24,03,07,0.00
2019,04,24,03,08,0.00
2019,04,24,03,09,0.00
2019,04,24,03,10,0.00
2019,04,24,03,11,0.00
2019,04,24,03,12,0.00
2019,04,24,03,13,0.00
2019,04,24,03,14,0.00
2019,04,24,03,15,0.00
2019,04,24,03,16,0.00
2019,04,24,03,17,0.00
2019,04,24,03,18,0.00
2019,04,24,03,19,0.00
2019,04,24,03,20,0.00
2019,04,24,03,21,0.00
2019,04,24,03,22,0.00
2019,04,24,03,23,0.00
2019,04,24,03,24,0.00
2019,04,24,03,25,0.00
2019,04,24,03,26,0.00
2019,04,24,03,27,0.00
2019,04,24,03,28,0.00
2019,04,24,03,29,0.00
2019,04,24,03,30,0.00
2019,04,24,03,31,0.00
2019,04,24,03,32,0.00
2019,04,24,03,33,0.00
2019,04,24,03,34,0.00
2019,04,24,03,35,0.00
2019,04,24,03,36,0.00
2019,04,24,03,37,0.00
2019,04,24,03,38,0.00
2019,04,24,03,39,0.50
2019,04,24,03,40,2.70
2019,04,24,03,41,5.50
2019,04,24,03,42,4.90
2019,04,24,03,43,4.50
2019,04,24,03,44,2.30
2019,04,24,03,45,3.90
2019,04,24,03,46,4.20
2019,04,24,03,47,1.60
2019,04,24,03,48,2.20
2019,04,24,03,49,3.50
2019,04,24,03,50,2.10
2019,04,24,03,51,0.20
2019,04,24,03,52,0.00
2019,04,24,03,53,1.70
2019,04,24,03,54,3.10
2019,04,24,03,55,2.40
2019,04,24,03,56,1.70
2019,04,24,03,57,0.00
2019,04,24,03,58,0.00
2019,04,24,03,59,0.00
2019,04,24,04,00,0.00
2019,04,24,04,01,0.00
2019,04,24,04,02,0.00
2019,04,24,04,03,0.00
2019,04,24,04,04,0.00
2019,04,24,04,05,0.00
2019,04,24,04,06,0.00
2019,04,24,04,07,0.00
2019,04,24,04,08,0.00
2019,04,24,04,09,0.00
2019,04,24,04,10,0.00
2019,04,24,04,11,0.00
2019,04,24,04,12,0.00
2019,04,24,04,13,0.00
2019,04,24,04,14,0.00
2019,04,24,04,15,0.00
2019,04,24,04,16,0.00
2019,04,24,04,17,0.00
2019,04,24,04,18,0.00
2019,04,24,04,19,0.00
2019,04,24,04,20,0.00
2019,04,24,04,21,0.00
2019,04,24,04,22,0.00
2019,04,24,04,23,0.00
2019,04,24,04,24,3.50
2019,04,24,04,25,4.00
2019,04,24,04,26,2.80
2019,04,24,04,27,3.60
2019,04,24,04,28,0.30
2019,04,24,04,29,0.00
2019,04,24,04,30,0.00
2019,04,24,04,31,0.90
2019,04,24,04,32,2.30
2019,04,24,04,33,1.00
2019,04,24,04,34,2.70
2019,04,24,04,35,1.70
2019,04,24,04,36,2.40
2019,04,24,04,37,1.30
2019,04,24,04,38,0.90
2019,04,24,04,39,1.80
2019,04,24,04,40,1.20
2019,04,24,04,41,0.30
2019,04,24,04,42,2.60
2019,04,24,04,43,0.50
2019,04,24,04,44,1.70
2019,04,24,04,45,3.70
2019,04,24,04,46,0.80
2019,04,24,04,47,0.00
2019,04,24,04,48,0.00
2019,04,24,04,49,0.00
2019,04,24,04,50,0.00
2019,04,24,04,51,0.00
2019,04,24,04,52,0.00
2019,04,24,04,53,0.00
2019,04,24,04,54,0.00
2019,04,24,04,55,1.10
2019,04,24,04,56,2.10
2019,04,24,04,57,1.00
2019,04,24,04,58,3.50
2019,04,24,04,59,4.60
2019,04,24,05,00,4.40
2019,04,24,05,01,2.70
2019,04,24,05,02,0.00
2019,04,24,05,03,0.00
2019,04,24,05,04,0.00
2019,04,24,05,05,0.00
2019,04,24,05,06,0.00
2019,04,24,05,07,0.00
2019,04,24,05,08,3.20
2019,04,24,05,09,1.70
2019,04,24,05,10,0.00
2019,04,24,05,11,0.00
2019,04,24,05,12,0.00
2019,04,24,05,13,0.50
2019,04,24,05,14,2.90
2019,04,24,05,15,2.30
2019,04,24,05,16,2.00
2019,04,24,05,17,2.10
2019,04,24,05,18,4.00
2019,04,24,05,19,3.80
2019,04,24,05,20,1.60
2019,04,24,05,21,3.90
2019,04,24,05,22,1.70
2019,04,24,05,23,0.60
2019,04,24,05,24,0.00
2019,04,24,05,25,2.40
2019,04,24,05,26,5.30
2019,04,24,05,27,3.60
2019,04,24,05,28,3.30
2019,04,24,05,29,2.30
2019,04,24,05,30,2.40
2019,04,24,05,31,0.60
2019,04,24,05,32,0.60
2019,04,24,05,33,1.90
2019,04,24,05,34,3.70
2019,04,24,05,35,2.60
2019,04,24,05,36,2.90
2019,04,24,05,37,4.00
2019,04,24,05,38,2.20
2019,04,24,05,39,0.10
2019,04,24,05,40,0.10
2019,04,24,05,41,2.30
2019,04,24,05,42,2.30
2019,04,24,05,43,0.50
2019,04,24,05,44,0.10
2019,04,24,05,45,2.60
2019,04,24,05,46,3.80
2019,04,24,05,47,0.00
2019,04,24,05,48,0.10
2019,04,24,05,49,3.00
2019,04,24,05,50,2.30
2019,04,24,05,51,3.80
2019,04,24,05,52,2.30
2019,04,24,05,53,0.00
2019,04,24,05,54,0.00
2019,04,24,05,55,0.00
2019,04,24,05,56,0.00
2019,04,24,05,57,0.00
2019,04,24,05,58,0.00
2019,04,24,05,59,0.00
2019,04,24,06,00,0.00
2019,04,24,06,01,0.00
2019,04,24,06,02,0.00
2019,04,24,06,03,0.00
2019,04,24,06,04,0.00
2019,04,24,06,05,4.20
2019,04,24,06,06,4.70
2019,04,24,06,07,4.30
2019,04,24,06,08,2.10
2019,04,24,06,09,2.60
2019,04,24,06,10,1.80
2019,04,24,06,11,3.40
2019,04,24,06,12,5.10
2019,04,24,06,13,4.20
2019,04,24,06,14,0.20
2019,04,24,06,15,0.00
2019,04,24,06,16,0.00
2019,04,24,06,17,2.60
2019,04,24,06,18,3.70
2019,04,24,06,19,4.20
2019,04,24,06,20,5.40
2019,04,24,06,21,2.60
2019,04,24,06,22,5.40
2019,04,24,06,23,3.20
2019,04,24,06,24,2.10
2019,04,24,06,25,3.30
2019,04,24,06,26,0.90
2019,04,24,06,27,2.10
2019,04,24,06,28,6.20
2019,04,24,06,29,7.80
2019,04,24,06,30,6.00
2019,04,24,06,31,6.10
2019,04,24,06,32,4.30
2019,04,24,06,33,6.30
2019,04,24,06,34,5.80
2019,04,24,06,35,3.60
2019,04,24,06,36,1.00
2019,04,24,06,37,0.00
2019,04,24,06,38,0.00
2019,04,24,06,39,0.00
2019,04,24,06,40,0.00
2019,04,24,06,41,0.00
2019,04,24,06,42,0.00
2019,04,24,06,43,0.00
2019,04,24,06,44,0.00
2019,04,24,06,45,0.00
2019,04,24,06,46,0.00
2019,04,24,06,47,0.00
2019,04,24,06,48,5.30
2019,04,24,06,49,3.20
2019,04,24,06,50,6.10
2019,04,24,06,51,6.90
2019,04,24,06,52,7.20
2019,04,24,06,53,5.70
2019,04,24,06,54,4.90
2019,04,24,06,55,3.90
2019,04,24,06,56,0.00
2019,04,24,06,57,0.00
2019,04,24,06,58,1.00
2019,04,24,06,59,3.30
2019,04,24,07,00,2.80
2019,04,24,07,01,3.20
2019,04,24,07,02,2.40
2019,04,24,07,03,1.40
2019,04,24,07,04,4.50
2019,04,24,07,05,3.30
2019,04,24,07,06,0.00
2019,04,24,07,07,0.00
2019,04,24,07,08,0.00
2019,04,24,07,09,0.00
2019,04,24,07,10,0.00
2019,04,24,07,11,0.00
2019,04,24,07,12,0.00
2019,04,24,07,13,0.00
2019,04,24,07,14,0.00
2019,04,24,07,15,3.20
2019,04,24,07,16,4.90
2019,04,24,07,17,4.20
2019,04,24,07,18,4.50
2019,04,24,07,19,3.70
2019,04,24,07,20,4.30
2019,04,24,07,21,4.80
2019,04,24,07,22,0.70
2019,04,24,07,23,0.00
2019,04,24,07,24,0.10
2019,04,24,07,25,1.10
2019,04,24,07,26,0.00
2019,04,24,07,27,0.00
2019,04,24,07,28,0.20
2019,04,24,07,29,4.40
2019,04,24,07,30,7.40
2019,04,24,07,31,7.10
2019,04,24,07,32,7.50
2019,04,24,07,33,7.60
2019,04,24,07,34,9.50
2019,04,24,07,35,10.90
2019,04,24,07,36,10.70
2019,04,24,07,37,5.60
2019,04,24,07,38,4.00
2019,04,24,07,39,4.60
2019,04,24,07,40,3.20
2019,04,24,07,41,6.40
2019,04,24,07,42,8.80
2019,04,24,07,43,6.30
2019,04,24,07,44,4.40
2019,04,24,07,45,4.50
2019,04,24,07,46,1.30
2019,04,24,07,47,0.00
2019,04,24,07,48,0.00
2019,04,24,07,49,0.00
2019,04,24,07,50,0.00
2019,04,24,07,51,0.00
2019,04,24,07,52,0.00
2019,04,24,07,53,0.00
2019,04,24,07,54,4.90
2019,04,24,07,55,6.10
2019,04,24,07,56,4.80
2019,04,24,07,57,5.20
2019,04,24,07,58,3.10
2019,04,24,07,59,0.30
2019,04,24,08,00,0.50
2019,04,24,08,01,0.00
2019,04,24,08,02,0.00
2019,04,24,08,03,0.00
2019,04,24,08,04,0.00
2019,04,24,08,05,0.00
2019,04,24,08,06,0.00
2019,04,24,08,07,0.00
2019,04,24,08,08,0.00
2019,04,24,08,09,0.00
2019,04,24,08,10,0.00
2019,04,24,08,11,0.00
2019,04,24,08,12,0.00
2019,04,24,08,13,0.00
2019,04,24,08,14,0.00
2019,04,24,08,15,0.00
2019,04,24,08,16,0.00
2019,04,24,08,17,0.00
2019,04,24,08,18,0.00
2019,04,24,08,19,0.10
2019,04,24,08,20,0.00
2019,04,24,08,21,0.00
2019,04,24,08,22,0.00
2019,04,24,08,23,2.70
2019,04,24,08,24,5.10
2019,04,24,08,25,2.00
2019,04,24,08,26,3.00
2019,04,24,08,27,1.50
2019,04,24,08,28,4.30
2019,04,24,08,29,2.90
2019,04,24,08,30,5.10
2019,04,24,08,31,6.10
2019,04,24,08,32,3.00
2019,04,24,08,33,3.40
2019,04,24,08,34,4.20
2019,04,24,08,35,6.40
2019,04,24,08,36,4.70
2019,04,24,08,37,4.10
2019,04,24,08,38,3.50
2019,04,24,08,39,3.50
2019,04,24,08,40,2.70
2019,04,24,08,41,5.80
2019,04,24,08,42,4.50
2019,04,24,08,43,5.80
2019,04,24,08,44,6.20
2019,04,24,08,45,7.30
2019,04,24,08,46,4.80
2019,04,24,08,47,8.30
2019,04,24,08,48,4.20
2019,04,24,08,49,4.60
2019,04,24,08,50,1.30
2019,04,24,08,51,0.70
2019,04,24,08,52,0.50
2019,04,24,08,53,3.50
2019,04,24,08,54,5.10
2019,04,24,08,55,7.20
2019,04,24,08,56,4.30
2019,04,24,08,57,7.00
2019,04,24,08,58,4.80
2019,04,24,08,59,4.50
2019,04,24,09,00,6.70
2019,04,24,09,01,5.10
2019,04,24,09,02,2.90
2019,04,24,09,03,1.80
2019,04,24,09,04,1.50
2019,04,24,09,05,0.00
2019,04,24,09,06,1.80
2019,04,24,09,07,2.70
2019,04,24,09,08,2.50
2019,04,24,09,09,2.50
2019,04,24,09,10,5.20
2019,04,24,09,11,3.60
2019,04,24,09,12,4.40
2019,04,24,09,13,3.40
2019,04,24,09,14,1.10
2019,04,24,09,15,3.90
2019,04,24,09,16,0.90
2019,04,24,09,17,2.10
2019,04,24,09,18,3.50
2019,04,24,09,19,4.90
2019,04,24,09,20,6.60
2019,04,24,09,21,6.20
2019,04,24,09,22,0.50
2019,04,24,09,23,4.60
2019,04,24,09,24,5.60
2019,04,24,09,25,6.60
2019,04,24,09,26,4.50
2019,04,24,09,27,6.90
2019,04,24,09,28,9.20
2019,04,24,09,29,6.80
2019,04,24,09,30,7.60
2019,04,24,09,31,9.30
2019,04,24,09,32,9.50
2019,04,24,09,33,6.10
2019,04,24,09,34,6.60
2019,04,24,09,35,3.90
2019,04,24,09,36,4.40
2019,04,24,09,37,4.60
2019,04,24,09,38,4.40
2019,04,24,09,39,7.50
2019,04,24,09,40,14.00
2019,04,24,09,41,8.90
2019,04,24,09,42,4.20
2019,04,24,09,43,1.30
2019,04,24,09,44,2.70
2019,04,24,09,45,5.60
2019,04,24,09,46,4.90
2019,04,24,09,47,8.10
2019,04,24,09,48,11.40
2019,04,24,09,49,1.90
2019,04,24,09,50,1.50
2019,04,24,09,51,2.80
2019,04,24,09,52,3.80
2019,04,24,09,53,4.50
2019,04,24,09,54,10.40
2019,04,24,09,55,5.20
2019,04,24,09,56,2.90
2019,04,24,09,57,2.00
2019,04,24,09,58,3.40
2019,04,24,09,59,9.70
2019,04,24,10,00,9.10
2019,04,24,10,01,5.30
2019,04,24,10,02,10.50
2019,04,24,10,03,4.80
2019,04,24,10,04,8.50
2019,04,24,10,05,2.70
2019,04,24,10,06,0.70
2019,04,24,10,07,1.30
2019,04,24,10,08,1.60
2019,04,24,10,09,1.00
2019,04,24,10,10,0.40
2019,04,24,10,11,2.30
2019,04,24,10,12,3.40
2019,04,24,10,13,3.00
2019,04,24,10,14,3.60
2019,04,24,10,15,5.50
2019,04,24,10,16,7.90
2019,04,24,10,17,7.00
2019,04,24,10,18,9.70
2019,04,24,10,19,9.50
2019,04,24,10,20,5.70
2019,04,24,10,21,6.10
2019,04,24,10,22,5.10
2019,04,24,10,23,5.30
2019,04,24,10,24,3.20
2019,04,24,10,25,5.30
2019,04,24,10,26,0.40
2019,04,24,10,27,2.00
2019,04,24,10,28,2.20
2019,04,24,10,29,4.20
2019,04,24,10,30,6.40
2019,04,24,10,31,1.30
2019,04,24,10,32,3.10
2019,04,24,10,33,3.20
2019,04,24,10,34,2.30
2019,04,24,10,35,1.70
2019,04,24,10,36,2.00
2019,04,24,10,37,4.80
2019,04,24,10,38,4.90
2019,04,24,10,39,1.70
2019,04,24,10,40,4.70
2019,04,24,10,41,6.10
2019,04,24,10,42,5.70
2019,04,24,10,43,3.30
2019,04,24,10,44,5.00
2019,04,24,10,45,6.00
2019,04,24,10,46,8.00
2019,04,24,10,47,9.40
2019,04,24,10,48,6.30
2019,04,24,10,49,5.80
2019,04,24,10,50,3.50
2019,04,24,10,51,6.20
2019,04,24,10,52,10.00
2019,04,24,10,53,11.30
2019,04,24,10,54,4.40
2019,04,24,10,55,8.50
2019,04,24,10,56,6.30
2019,04,24,10,57,5.40
2019,04,24,10,58,7.60
2019,04,24,10,59,8.00
2019,04,24,11,00,8.30
2019,04,24,11,01,8.40
2019,04,24,11,02,5.50
2019,04,24,11,03,9.80
2019,04,24,11,04,12.00
2019,04,24,11,05,7.90
2019,04,24,11,06,5.80
2019,04,24,11,07,12.10
2019,04,24,11,08,4.70
2019,04,24,11,09,5.70
2019,04,24,11,10,9.40
2019,04,24,11,11,5.60
2019,04,24,11,12,5.50
2019,04,24,11,13,8.70
2019,04,24,11,14,7.00
2019,04,24,11,15,5.00
2019,04,24,11,16,6.70
2019,04,24,11,17,13.20
2019,04,24,11,18,9.70
2019,04,24,11,19,8.30
2019,04,24,11,20,12.80
2019,04,24,11,21,8.40
2019,04,24,11,22,10.00
2019,04,24,11,23,12.70
2019,04,24,11,24,7.00
2019,04,24,11,25,11.30
2019,04,24,11,26,9.00
2019,04,24,11,27,10.00
2019,04,24,11,28,8.40
2019,04,24,11,29,12.20
2019,04,24,11,30,8.70
2019,04,24,11,31,10.60
2019,04,24,11,32,14.40
2019,04,24,11,33,12.50
2019,04,24,11,34,9.40
2019,04,24,11,35,10.80
2019,04,24,11,36,6.10
2019,04,24,11,37,9.90
2019,04,24,11,38,10.50
2019,04,24,11,39,11.60
2019,04,24,11,40,8.40
2019,04,24,11,41,10.90
2019,04,24,11,42,9.20
2019,04,24,11,43,8.90
2019,04,24,11,44,9.70
2019,04,24,11,45,3.80
2019,04,24,11,46,6.90
2019,04,24,11,47,9.10
2019,04,24,11,48,9.30
2019,04,24,11,49,13.40
2019,04,24,11,50,9.50
2019,04,24,11,51,4.90
2019,04,24,11,52,12.10
2019,04,24,11,53,8.10
2019,04,24,11,54,7.60
2019,04,24,11,55,5.70
2019,04,24,11,56,7.30
2019,04,24,11,57,10.30
2019,04,24,11,58,8.00
2019,04,24,11,59,5.80
2019,04,24,12,00,7.50
2019,04,24,12,01,9.00
2019,04,24,12,02,12.30
2019,04,24,12,03,13.20
2019,04,24,12,04,11.30
2019,04,24,12,05,8.20
2019,04,24,12,06,9.50
2019,04,24,12,07,8.00
2019,04,24,12,08,13.20
2019,04,24,12,09,11.70
2019,04,24,12,10,7.60
2019,04,24,12,11,10.30
2019,04,24,12,12,6.60
2019,04,24,12,13,6.00
2019,04,24,12,14,3.60
2019,04,24,12,15,4.70
2019,04,24,12,16,8.00
2019,04,24,12,17,6.30
2019,04,24,12,18,7.00
2019,04,24,12,19,7.70
2019,04,24,12,20,7.00
2019,04,24,12,21,6.60
2019,04,24,12,22,7.10
2019,04,24,12,23,5.60
2019,04,24,12,24,4.70
2019,04,24,12,25,6.90
2019,04,24,12,26,10.40
2019,04,24,12,27,7.20
2019,04,24,12,28,3.20
2019,04,24,12,29,10.40
2019,04,24,12,30,7.20
2019,04,24,12,31,6.10
2019,04,24,12,32,4.40
2019,04,24,12,33,7.70
2019,04,24,12,34,9.90
2019,04,24,12,35,4.50
2019,04,24,12,36,4.00
2019,04,24,12,37,6.80
2019,04,24,12,38,7.80
2019,04,24,12,39,12.80
2019,04,24,12,40,8.60
2019,04,24,12,41,7.70
2019,04,24,12,42,6.10
2019,04,24,12,43,6.90
2019,04,24,12,44,3.80
2019,04,24,12,45,10.90
2019,04,24,12,46,8.80
2019,04,24,12,47,6.40
2019,04,24,12,48,6.80
2019,04,24,12,49,13.80
2019,04,24,12,50,10.70
2019,04,24,12,51,7.60
2019,04,24,12,52,6.50
2019,04,24,12,53,13.50
2019,04,24,12,54,10.00
2019,04,24,12,55,12.00
2019,04,24,12,56,9.90
2019,04,24,12,57,8.00
2019,04,24,12,58,8.30
2019,04,24,12,59,8.90
2019,04,24,13,00,9.50
2019,04,24,13,01,5.30
2019,04,24,13,02,6.90
2019,04,24,13,03,4.60
2019,04,24,13,04,11.70
2019,04,24,13,05,5.10
2019,04,24,13,06,8.70
2019,04,24,13,07,6.40
2019,04,24,13,08,5.70
2019,04,24,13,09,4.90
2019,04,24,13,10,7.90
2019,04,24,13,11,5.60
2019,04,24,13,12,8.20
2019,04,24,13,13,3.80
2019,04,24,13,14,6.00
2019,04,24,13,15,7.90
2019,04,24,13,16,6.50
2019,04,24,13,17,3.00
2019,04,24,13,18,6.00
2019,04,24,13,19,5.40
2019,04,24,13,20,8.30
2019,04,24,13,21,8.20
2019,04,24,13,22,8.60
2019,04,24,13,23,7.10
2019,04,24,13,24,5.80
2019,04,24,13,25,3.60
2019,04,24,13,26,7.80
2019,04,24,13,27,4.50
2019,04,24,13,28,3.70
2019,04,24,13,29,4.30
2019,04,24,13,30,6.40
2019,04,24,13,31,8.00
2019,04,24,13,32,8.50
2019,04,24,13,33,6.30
2019,04,24,13,34,9.20
2019,04,24,13,35,13.30
2019,04,24,13,36,9.50
2019,04,24,13,37,6.00
2019,04,24,13,38,12.60
2019,04,24,13,39,6.70
2019,04,24,13,40,13.40
2019,04,24,13,41,9.20
2019,04,24,13,42,11.60
2019,04,24,13,43,10.00
2019,04,24,13,44,9.40
2019,04,24,13,45,5.80
2019,04,24,13,46,8.60
2019,04,24,13,47,10.10
2019,04,24,13,48,6.80
2019,04,24,13,49,9.60
2019,04,24,13,50,5.50
2019,04,24,13,51,9.80
2019,04,24,13,52,8.50
2019,04,24,13,53,10.90
2019,04,24,13,54,13.60
2019,04,24,13,55,12.00
2019,04,24,13,56,10.30
2019,04,24,13,57,13.90
2019,04,24,13,58,9.30
2019,04,24,13,59,14.80
2019,04,24,14,00,8.90
2019,04,24,14,01,5.20
2019,04,24,14,02,17.00
2019,04,24,14,03,10.70
2019,04,24,14,04,13.20
2019,04,24,14,05,15.70
2019,04,24,14,06,9.20
2019,04,24,14,07,6.20
2019,04,24,14,08,9.10
2019,04,24,14,09,6.00
2019,04,24,14,10,6.00
2019,04,24,14,11,10.10
2019,04,24,14,12,7.90
2019,04,24,14,13,9.70
2019,04,24,14,14,8.60
2019,04,24,14,15,6.60
2019,04,24,14,16,12.50
2019,04,24,14,17,9.50
2019,04,24,14,18,8.50
2019,04,24,14,19,6.80
2019,04,24,14,20,8.60
2019,04,24,14,21,13.80
2019,04,24,14,22,9.20
2019,04,24,14,23,7.10
2019,04,24,14,24,3.80
2019,04,24,14,25,8.70
2019,04,24,14,26,8.20
2019,04,24,14,27,9.00
2019,04,24,14,28,10.00
2019,04,24,14,29,8.00
2019,04,24,14,30,7.00
2019,04,24,14,31,10.00
2019,04,24,14,32,6.50
2019,04,24,14,33,8.60
2019,04,24,14,34,7.00
2019,04,24,14,35,6.00
2019,04,24,14,36,6.70
2019,04,24,14,37,7.40
2019,04,24,14,38,9.20
2019,04,24,14,39,8.40
2019,04,24,14,40,11.30
2019,04,24,14,41,11.40
2019,04,24,14,42,4.90
2019,04,24,14,43,9.50
2019,04,24,14,44,9.20
2019,04,24,14,45,10.40
2019,04,24,14,46,10.80
2019,04,24,14,47,12.70
2019,04,24,14,48,9.40
2019,04,24,14,49,9.10
2019,04,24,14,50,8.60
2019,04,24,14,51,6.70
2019,04,24,14,52,8.30
2019,04,24,14,53,10.50
2019,04,24,14,54,5.30
2019,04,24,14,55,7.30
2019,04,24,14,56,7.10
2019,04,24,14,57,8.30
2019,04,24,14,58,10.70
2019,04,24,14,59,6.50
2019,04,24,15,00,8.50
2019,04,24,15,01,5.90
2019,04,24,15,02,6.30
2019,04,24,15,03,11.40
2019,04,24,15,04,9.70
2019,04,24,15,05,9.20
2019,04,24,15,06,12.00
2019,04,24,15,07,14.10
2019,04,24,15,08,13.10
2019,04,24,15,09,7.30
2019,04,24,15,10,11.50
2019,04,24,15,11,9.30
2019,04,24,15,12,10.00
2019,04,24,15,13,14.10
2019,04,24,15,14,11.50
2019,04,24,15,15,14.10
2019,04,24,15,16,17.60
2019,04,24,15,17,14.20
2019,04,24,15,18,5.40
2019,04,24,15,19,13.60
2019,04,24,15,20,13.80
2019,04,24,15,21,5.30
2019,04,24,15,22,10.40
2019,04,24,15,23,11.10
2019,04,24,15,24,11.20
2019,04,24,15,25,6.20
2019,04,24,15,26,8.20
2019,04,24,15,27,14.00
2019,04,24,15,28,9.70
2019,04,24,15,29,11.20
2019,04,24,15,30,10.40
2019,04,24,15,31,9.50
2019,04,24,15,32,10.60
2019,04,24,15,33,12.20
2019,04,24,15,34,16.50
2019,04,24,15,35,13.60
2019,04,24,15,36,10.60
2019,04,24,15,37,7.80
2019,04,24,15,38,13.40
2019,04,24,15,39,13.40
2019,04,24,15,40,9.60
2019,04,24,15,41,10.10
2019,04,24,15,42,14.50
2019,04,24,15,43,10.30
2019,04,24,15,44,10.10
2019,04,24,15,45,12.80
2019,04,24,15,46,10.90
2019,04,24,15,47,6.70
2019,04,24,15,48,6.40
2019,04,24,15,49,10.50
2019,04,24,15,50,10.10
2019,04,24,15,51,9.10
2019,04,24,15,52,11.40
2019,04,24,15,53,14.40
2019,04,24,15,54,15.40
2019,04,24,15,55,11.60
2019,04,24,15,56,5.70
2019,04,24,15,57,7.30
2019,04,24,15,58,9.70
2019,04,24,15,59,8.50
2019,04,24,16,00,10.20
2019,04,24,16,01,11.80
2019,04,24,16,02,14.40
2019,04,24,16,03,15.60
2019,04,24,16,04,12.70
2019,04,24,16,05,9.70
2019,04,24,16,06,8.80
2019,04,24,16,07,11.00
2019,04,24,16,08,10.10
2019,04,24,16,09,12.40
2019,04,24,16,10,16.20
2019,04,24,16,11,12.80
2019,04,24,16,12,13.10
2019,04,24,16,13,14.60
2019,04,24,16,14,15.50
2019,04,24,16,15,9.70
2019,04,24,16,16,11.00
2019,04,24,16,17,12.60
2019,04,24,16,18,11.10
2019,04,24,16,19,6.90
2019,04,24,16,20,10.10
2019,04,24,16,21,10.00
2019,04,24,16,22,8.90
2019,04,24,16,23,8.00
2019,04,24,16,24,10.60
2019,04,24,16,25,7.00
2019,04,24,16,26,10.90
2019,04,24,16,27,10.60
2019,04,24,16,28,12.80
2019,04,24,16,29,3.30
2019,04,24,16,30,9.20
2019,04,24,16,31,14.20
2019,04,24,16,32,9.50
2019,04,24,16,33,10.20
2019,04,24,16,34,15.20
2019,04,24,16,35,6.80
2019,04,24,16,36,7.30
2019,04,24,16,37,10.50
2019,04,24,16,38,6.40
2019,04,24,16,39,8.80
2019,04,24,16,40,7.80
2019,04,24,16,41,10.80
2019,04,24,16,42,11.30
2019,04,24,16,43,11.10
2019,04,24,16,44,5.70
2019,04,24,16,45,9.70
2019,04,24,16,46,13.90
2019,04,24,16,47,9.30
2019,04,24,16,48,7.00
2019,04,24,16,49,5.30
2019,04,24,16,50,4.70
2019,04,24,16,51,6.60
2019,04,24,16,52,6.40
2019,04,24,16,53,13.50
2019,04,24,16,54,7.80
2019,04,24,16,55,8.20
2019,04,24,16,56,8.00
2019,04,24,16,57,15.00
2019,04,24,16,58,9.40
2019,04,24,16,59,15.60
2019,04,24,17,00,12.60
2019,04,24,17,01,8.90
2019,04,24,17,02,5.60
2019,04,24,17,03,9.50
2019,04,24,17,04,11.20
2019,04,24,17,05,10.40
2019,04,24,17,06,7.20
2019,04,24,17,07,10.50
2019,04,24,17,08,8.80
2019,04,24,17,09,6.40
2019,04,24,17,10,8.50
2019,04,24,17,11,8.40
2019,04,24,17,12,14.70
2019,04,24,17,13,5.50
2019,04,24,17,14,9.80
2019,04,24,17,15,5.60
2019,04,24,17,16,9.80
2019,04,24,17,17,12.50
2019,04,24,17,18,6.40
2019,04,24,17,19,6.50
2019,04,24,17,20,7.30
2019,04,24,17,21,7.00
2019,04,24,17,22,7.00
2019,04,24,17,23,7.50
2019,04,24,17,24,5.30
2019,04,24,17,25,7.70
2019,04,24,17,26,7.60
2019,04,24,17,27,6.20
2019,04,24,17,28,6.50
2019,04,24,17,29,13.40
2019,04,24,17,30,17.10
2019,04,24,17,31,11.30
2019,04,24,17,32,12.10
2019,04,24,17,33,11.30
2019,04,24,17,34,8.00
2019,04,24,17,35,13.30
2019,04,24,17,36,11.50
2019,04,24,17,37,12.30
2019,04,24,17,38,13.00
2019,04,24,17,39,10.30
2019,04,24,17,40,12.40
2019,04,24,17,41,9.20
2019,04,24,17,42,13.00
2019,04,24,17,43,9.50
2019,04,24,17,44,6.40
2019,04,24,17,45,6.40
2019,04,24,17,46,17.30
2019,04,24,17,47,12.80
2019,04,24,17,48,15.70
2019,04,24,17,49,9.00
2019,04,24,17,50,11.00
2019,04,24,17,51,13.80
2019,04,24,17,52,13.40
2019,04,24,17,53,15.60
2019,04,24,17,54,12.70
2019,04,24,17,55,16.30
2019,04,24,17,56,13.90
2019,04,24,17,57,7.30
2019,04,24,17,58,8.30